Flag for Turkey Weather past 2 weeks in Mersin, Turkey

Now
86 °F

Scattered clouds.


Feels Like: 88 °F
Forecast: 69 / 90 °F
Wind: 5 mph from North

Location: Adana / Sakirpasa

Current Time: Jul 4, 2015 at 11:48:53 AM

Latest Report: Jul 4, 2015 at 10:50 AM


Visibility: N/A

Pressure: 29.86 "Hg

Humidity: 52%

Dew point: 66 °F

Location of MersinLocation

Historic Weather in Mersin — Graph

°F

Mersin temperature yesterday

Maximum temperature yesterday: 88 °F (at 12:50 PM)
Minimum temperature yesterday: 73 °F (at 1:20 AM)
Average temperature yesterday: 80 °F

Past Weeks' High & Low Weather Summary

 TemperatureHumidityPressure
High90 °F (Jun 26, 2:50 PM)94% (Jun 23, 5:50 AM)29.95 "Hg (Jun 23, 5:50 AM)
Low68 °F (Jun 21, 4:20 AM)38% (Jun 26, 2:50 PM)29.59 "Hg (Jun 26, 3:50 PM)
Average78 °F69%29.77 "Hg
* Reported Jun 19 10:20 AM — Jul 4 10:50 AM, Mersin, Weather by CustomWeather, © 2015

Note: Actual official high and low records may vary slightly from our data, if they occured in-between our weather recording intervals... More about our weather records

Advertising

Mersin weather history for previous 24 hours

 ConditionsComfort  
Time TempWeatherWind HumidityBarometerVisibility
10:50 AM
Sat, Jul 4
86 °FScattered clouds.5 mph52%29.86 "HgN/A
10:20 AM82 °FScattered clouds.5 mph62%29.86 "HgN/A
9:50 AM81 °FScattered clouds.5 mph70%29.86 "HgN/A
9:20 AM82 °FScattered clouds.3 mph66%29.86 "HgN/A
8:50 AM81 °FScattered clouds.5 mph70%29.86 "HgN/A
8:20 AM79 °FBroken clouds.3 mph79%29.83 "HgN/A
7:50 AM77 °FScattered clouds.3 mph83%29.83 "HgN/A
7:20 AM75 °FPartly sunny.5 mph89%29.83 "HgN/A
6:50 AM75 °FScattered clouds.3 mph89%29.83 "HgN/A
6:20 AM73 °FPassing clouds.1 mph89%29.83 "HgN/A
5:50 AM73 °FPassing clouds.3 mph89%29.83 "HgN/A
5:20 AM73 °FPassing clouds.3 mph89%29.83 "HgN/A
4:50 AM73 °FPartly cloudy.No wind89%29.83 "HgN/A
4:20 AM73 °FPassing clouds.3 mph89%29.83 "HgN/A
3:50 AM75 °FPassing clouds.3 mph83%29.83 "HgN/A
3:20 AM75 °FPassing clouds.5 mph83%29.83 "HgN/A
2:50 AM75 °FPassing clouds.5 mph83%29.83 "HgN/A
2:20 AM75 °FPassing clouds.5 mph83%29.83 "HgN/A
1:50 AM75 °FPassing clouds.3 mph83%29.83 "HgN/A
1:20 AM75 °FPassing clouds.No wind83%29.83 "HgN/A
12:50 AM75 °FPassing clouds.No wind83%29.86 "HgN/A
12:20 AM75 °FPassing clouds.No wind83%29.86 "HgN/A
11:50 PM
Fri, Jul 3
77 °FPassing clouds.No wind79%29.86 "HgN/A
11:20 PM77 °FPassing clouds.No wind79%29.86 "HgN/A
10:50 PM77 °FPassing clouds.1 mph83%29.86 "HgN/A
10:20 PM77 °FPassing clouds.3 mph83%29.86 "HgN/A
9:50 PM77 °FPassing clouds.5 mph83%29.86 "HgN/A
9:20 PM77 °FPassing clouds.6 mph83%29.83 "HgN/A
8:50 PM79 °FPassing clouds.5 mph79%29.83 "HgN/A
8:20 PM79 °FPassing clouds.5 mph79%29.83 "HgN/A
7:50 PM79 °FPassing clouds.7 mph79%29.83 "HgN/A
7:20 PM81 °FPassing clouds.8 mph74%29.80 "HgN/A
6:50 PM82 °FPassing clouds.10 mph66%29.80 "HgN/A
6:20 PM82 °FPassing clouds.10 mph66%29.80 "HgN/A
5:50 PM84 °FPassing clouds.12 mph62%29.80 "HgN/A
5:20 PM86 °FPassing clouds.12 mph59%29.80 "HgN/A
4:50 PM86 °FPassing clouds.12 mph55%29.80 "HgN/A
4:20 PM86 °FPassing clouds.12 mph55%29.80 "HgN/A
3:50 PM86 °FScattered clouds.14 mph52%29.80 "HgN/A
3:20 PM86 °FScattered clouds.13 mph55%29.80 "HgN/A
2:50 PM88 °FScattered clouds.14 mph52%29.80 "HgN/A
2:20 PM88 °FScattered clouds.10 mph55%29.80 "HgN/A
1:50 PM88 °FScattered clouds.9 mph52%29.80 "HgN/A
1:20 PM88 °FScattered clouds.7 mph55%29.80 "HgN/A
12:50 PM88 °FScattered clouds.8 mph55%29.80 "HgN/A
12:20 PM86 °FPassing clouds.7 mph55%29.83 "HgN/A
11:50 AM86 °FScattered clouds.7 mph55%29.83 "HgN/A
11:20 AM84 °FScattered clouds.6 mph58%29.83 "HgN/A
Weather by CustomWeather, © 2015

See weather overviewHow to use our weather pages